Date,TemperatureHighF,TemperatureAvgF,TemperatureLowF,DewpointHighF,DewpointAvgF,DewpointLowF,HumidityHigh,HumidityAvg,HumidityLow,PressureMaxIn,PressureMinIn,WindSpeedMaxMPH,WindSpeedAvgMPH,GustSpeedMaxMPH,PrecipitationSumIn
2013-1-1,47,46,42,38,25,20,75,45,38,30.11,29.94,15,1,15,0.16
2013-1-2,45,41,37,40,30,20,86,66,40,30.23,30.00,10,1,10,0.28
2013-1-3,41,36,32,31,19,13,77,51,39,30.26,30.20,6,0,6,0.00
2013-1-4,47,37,29,25,17,9,74,45,37,30.32,30.20,17,3,17,0.00
2013-1-5,51,39,28,26,16,8,42,39,37,30.41,30.26,10,2,10,0.00
2013-1-6,53,44,39,27,21,17,49,40,36,30.26,30.09,9,1,9,0.00
2013-1-7,50,40,33,25,18,14,47,40,37,30.47,30.20,12,1,12,0.00
2013-1-8,51,38,28,28,20,13,69,47,35,30.50,30.41,8,0,8,0.00
2013-1-9,69,53,37,38,31,23,74,45,33,30.44,30.35,14,2,14,0.00
2013-1-10,60,50,42,44,31,18,82,50,35,30.59,30.41,10,1,10,0.00
2013-1-11,50,44,38,46,34,16,92,68,39,30.50,30.17,8,1,8,0.12
2013-1-12,66,56,47,63,50,42,95,84,43,30.20,30.14,6,0,6,0.00
2013-1-13,73,62,57,66,49,37,96,68,32,30.17,30.09,9,2,9,0.00
2013-1-14,65,60,47,59,47,40,86,64,40,30.26,30.11,14,3,14,1.46
2013-1-15,47,43,41,43,40,38,95,89,81,30.32,30.11,13,2,13,0.20
2013-1-16,48,44,40,47,43,38,97,96,95,30.14,30.00,11,1,11,0.39
2013-1-17,49,44,34,48,42,28,97,91,70,30.14,30.03,15,2,15,1.02
2013-1-18,42,35,31,34,24,14,96,67,39,30.56,30.14,9,0,9,0.55
2013-1-19,52,39,29,26,17,9,54,41,36,30.53,30.14,10,2,10,0.00
2013-1-20,60,48,40,32,23,17,39,37,35,30.14,30.00,18,4,18,0.00
2013-1-21,56,43,30,29,20,11,51,40,35,30.11,29.88,21,3,21,0.00
2013-1-22,41,29,20,18,9,1,43,41,39,30.32,29.97,20,6,20,0.00
2013-1-23,37,28,17,15,7,-1,44,42,40,30.38,30.09,17,3,17,0.00
2013-1-24,32,28,17,11,8,-1,44,42,41,30.56,30.00,26,5,26,0.00
2013-1-25,26,21,14,15,4,-4,62,48,42,30.53,30.11,10,1,10,0.00
2013-1-26,35,26,19,17,11,7,69,54,41,30.44,30.11,5,0,5,0.04
2013-1-27,39,30,19,22,14,10,76,54,39,30.62,30.44,9,1,9,0.08
2013-1-28,54,42,30,33,22,11,66,47,36,30.53,30.23,17,3,17,0.04
2013-1-29,72,58,48,42,37,30,76,48,32,30.23,30.11,11,3,11,0.00
2013-1-30,71,67,61,49,42,38,62,41,33,30.11,29.41,27,7,27,0.04
2013-1-31,68,46,33,54,24,12,70,41,37,30.03,29.41,32,9,32,0.35